Home   Weather   Tiruchirappalli   Past weeks

Flag for India Past Weather in Tiruchirappalli, Tamil Nadu, India — Yesterday and Last 2 Weeks

Now
88 °F

Haze.


Feels Like: 94 °F
Forecast: 80 / 104 °F
Wind: No wind

Location: Tiruchchirapalli

Current Time: Apr 30, 2017 at 1:17:45 am

Latest Report: Apr 30, 2017 at 12:30 am


Visibility: 3 mi

Pressure: 29.80 "Hg

Humidity: 59%

Dew Point: 72 °F

Location of TiruchirappalliLocation

Past Weather in Tiruchirappalli — Graph

°F

Tiruchirappalli Temperature Yesterday

Maximum temperature yesterday: 106 °F (at 3:30 pm)
Minimum temperature yesterday: 81 °F (at 6:00 am)
Average temperature yesterday: 92 °F

High & Low Weather Summary for the Past Weeks

 TemperatureHumidityPressure
High108 °F (Apr 17, 3:00 pm)89% (Apr 27, 6:00 am)29.86 "Hg (Apr 27, 6:00 am)
Low81 °F (Apr 27, 6:00 am)20% (Apr 15, 5:30 pm)29.59 "Hg (Apr 15, 3:00 pm)
Average93 °F53%29.73 "Hg
* Reported Apr 14 11:30 pm — Apr 30 12:00 am, Tiruchirappalli, Weather by CustomWeather, © 2017

Note: Actual official high and low records may vary slightly from our data, if they occured in-between our weather recording intervals... More about our weather records

Advertising

Tiruchirappalli Weather History for the Previous 24 Hours

Scroll right to see more
 ConditionsComfort  
Time TempWeatherWind HumidityBarometerVisibility
12:00 am
Sun, Apr 30
88 °FHaze.No wind59%29.80 "Hg3 mi
11:30 pm
Sat, Apr 29
90 °FHaze.No wind55%29.80 "Hg3 mi
11:00 pm90 °FHaze.No wind52%29.77 "Hg3 mi
10:30 pm90 °FHaze.2 mph52%29.77 "Hg3 mi
10:00 pm90 °FHaze.6 mph52%29.77 "Hg3 mi
9:30 pm91 °FPassing clouds.7 mph49%29.77 "Hg4 mi
9:00 pm91 °FPassing clouds.7 mph49%29.77 "Hg4 mi
8:30 pm93 °FPassing clouds.9 mph44%29.77 "Hg4 mi
7:30 pm99 °FPassing clouds.12 mph35%29.74 "Hg4 mi
6:00 pm102 °FPassing clouds.12 mph33%29.68 "Hg5 mi
5:30 pm102 °FScattered clouds.12 mph33%29.68 "Hg5 mi
5:00 pm106 °FScattered clouds.9 mph22%29.68 "Hg5 mi
4:30 pm106 °FScattered clouds.3 mph22%29.68 "Hg5 mi
4:00 pm106 °FScattered clouds.3 mph22%29.68 "Hg5 mi
3:30 pm106 °FScattered clouds.3 mph23%29.68 "Hg5 mi
3:00 pm104 °FScattered clouds.2 mph28%29.71 "Hg5 mi
2:30 pm104 °FScattered clouds.5 mph28%29.71 "Hg5 mi
2:00 pm104 °FPassing clouds.3 mph29%29.74 "Hg4 mi
1:00 pm102 °FHaze.3 mph31%29.77 "Hg3 mi
12:30 pm102 °FHaze.2 mph31%29.80 "Hg3 mi
12:00 pm100 °FHaze.3 mph35%29.80 "Hg3 mi
11:30 am99 °FHaze.3 mph39%29.83 "Hg2 mi
11:00 am97 °FHaze.3 mph44%29.83 "Hg2 mi
10:30 am95 °FHaze.3 mph47%29.86 "Hg2 mi
10:00 am93 °FHaze.3 mph49%29.86 "Hg2 mi
9:30 am91 °FHaze.6 mph56%29.86 "Hg2 mi
9:00 am90 °FHaze.6 mph59%29.86 "Hg2 mi
8:30 am88 °FHaze.8 mph59%29.86 "Hg2 mi
8:00 am86 °FHaze.No wind59%29.83 "Hg2 mi
7:30 am84 °FHaze.No wind66%29.83 "Hg2 mi
7:00 am82 °FHaze.No wind66%29.83 "Hg2 mi
6:30 am81 °FHaze.No wind70%29.83 "Hg2 mi
6:00 am81 °FHaze.No wind70%29.80 "Hg2 mi
5:30 am82 °FHaze.No wind66%29.80 "Hg2 mi
5:00 am82 °FHaze.No wind62%29.80 "Hg2 mi
4:30 am84 °FHaze.2 mph58%29.77 "Hg2 mi
4:00 am84 °FHaze.No wind58%29.77 "Hg2 mi
3:30 am84 °FHaze.No wind58%29.77 "Hg2 mi
3:00 am84 °FHaze.No wind58%29.77 "Hg2 mi
2:30 am84 °FHaze.No wind58%29.77 "Hg2 mi
2:00 am86 °FHaze.No wind52%29.77 "Hg2 mi
1:30 am88 °FHaze.No wind49%29.77 "Hg3 mi
1:00 am88 °FHaze.No wind49%29.77 "Hg3 mi
Weather by CustomWeather, © 2017

See weather overviewHow to use our weather pages